CW0565 Weather Reports


time (UTC)temp
F
wind
direction
speed
knots
gust
knots
rain 1hr
in
rain 24hr
in
rain mn
in
humidity
%
barometer
mb
20260902060010 51 165 2.6 5.2 0.00 0.02 0.02 91 1009.5
20260902054510 50 165 0.9 2.6 0.00 0.02 0.02 92 1009.3
20260902053011 50 165 0.9 5.2 0.00 0.02 0.02 93 1009.6
20260902051514 50 166 2.6 5.2 0.00 0.02 0.02 93 1009.7
20260902050009 50 228 0.0 0.9 0.00 0.02 0.02 92 1009.5
20260902044510 50 228 0.0 1.7 0.00 0.02 0.02 91 1009.5
20260902041511 51 228 1.7 3.5 0.00 0.02 0.02 89 1009.4
20260902040009 51 228 0.9 2.6 0.00 0.02 0.02 87 1009.5
20260902034509 52 228 1.7 3.5 0.00 0.02 0.02 85 1009.5
20260902033009 52 241 2.6 6.1 0.00 0.02 0.02 85 1009.3
20260902031510 52 298 0.9 3.5 0.00 0.02 0.02 85 1009.1
20260902030011 52 300 0.0 3.5 0.00 0.02 0.02 85 1009.1
20260902024509 53 299 0.9 7.0 0.00 0.02 0.02 85 1008.9
20260902021509 54 225 3.5 7.0 0.00 0.02 0.02 87 1009.0
20260902014527 54 221 2.6 5.2 0.00 0.02 0.02 96 1008.7
20260902013009 55 170 0.9 2.6 0.00 0.02 0.02 96 1008.4
20260902011520 55 171 0.9 3.5 0.00 0.02 0.02 96 1008.3
20260902004510 55 171 1.7 5.2 0.01 0.02 0.02 96 1008.4
20260902003012 55 176 2.6 3.5 0.02 0.02 0.02 95 1008.4
20260902001514 55 176 0.0 0.0 0.02 0.02 0.02 95 1008.3
20260902000011 55 176 0.0 0.0 0.01 0.02 0.02 94 1008.6
20260901234509 55 176 0.0 0.0 0.01 0.02 0.02 94 1008.6
20260901233010 55 176 0.0 0.0 0.00 0.01 0.01 93 1008.7
20260901231510 54 176 0.0 0.0 0.00 0.01 0.01 93 1008.8
20260901230010 54 176 0.0 0.0 0.01 0.01 0.01 92 1009.0
20260901223011 54 176 1.7 3.5 0.01 0.01 0.01 91 1009.0
20260901221510 54 176 0.9 5.2 0.01 0.01 0.01 88 1009.3
20260901220009 55 175 4.3 6.1 0.00 0.00 0.00 84 1009.5
20260901214528 55 178 3.5 5.2 0.00 0.00 0.00 81 1009.4
20260901213009 55 237 0.0 2.6 0.00 0.00 0.00 78 1009.6
20260901211510 55 236 0.0 1.7 0.00 0.00 0.00 77 1009.7
20260901210010 55 237 1.7 3.5 0.00 0.00 0.00 77 1009.9
20260901204509 55 236 0.9 2.6 0.00 0.00 0.00 76 1009.9
20260901203010 55 236 0.9 2.6 0.00 0.00 0.00 74 1010.1
20260901201510 56 236 0.0 4.3 0.00 0.00 0.00 72 1010.1
20260901200010 56 238 1.7 6.1 0.00 0.00 0.00 72 1010.2
20260901194509 56 248 1.7 7.0 0.00 0.00 0.00 71 1010.3
20260901193010 56 240 3.5 7.8 0.00 0.00 0.00 70 1010.5
20260901191522 57 281 0.9 14.8 0.00 0.00 0.00 70 1010.5
20260901190009 57 190 2.6 13.9 0.00 0.00 0.00 70 1010.4
20260901184510 58 204 7.8 13.0 0.00 0.00 0.00 69 1010.1
20260901183010 59 226 7.8 13.9 0.00 0.00 0.00 69 1009.9
20260901181508 60 246 3.5 12.2 0.00 0.00 0.00 68 1009.7
20260901180011 61 235 7.0 13.0 0.00 0.00 0.00 65 1009.5
20260901174509 62 238 7.0 13.9 0.00 0.00 0.00 62 1009.4
20260901173009 63 246 4.3 13.9 0.00 0.00 0.00 60 1009.4
20260901171509 65 242 4.3 10.4 0.00 0.00 0.00 57 1009.2
20260901170009 65 238 7.0 13.0 0.00 0.00 0.00 57 1009.1
20260901164509 65 265 8.7 14.8 0.00 0.00 0.00 55 1009.1
20260901163009 65 276 9.6 18.2 0.00 0.00 0.00 55 1009.0
20260901161510 66 226 3.5 16.5 0.00 0.00 0.00 58 1008.9
20260901160014 67 249 7.8 20.0 0.00 0.00 0.00 56 1008.9
20260901154510 67 80 8.7 17.4 0.00 0.00 0.00 56 1008.6
20260901153019 68 215 9.6 18.2 0.00 0.00 0.00 55 1008.6
20260901151509 69 262 10.4 16.5 0.00 0.00 0.00 55 1008.7
20260901150017 69 203 8.7 15.6 0.00 0.00 0.00 52 1008.4
20260901144514 70 245 10.4 17.4 0.00 0.00 0.00 50 1008.5
20260901143011 70 259 8.7 17.4 0.00 0.00 0.00 48 1008.3
20260901141509 70 248 7.0 12.2 0.00 0.00 0.00 47 1008.1
20260901140009 70 253 5.2 12.2 0.00 0.00 0.00 42 1008.2
20260901134510 70 236 7.8 14.8 0.00 0.00 0.00 36 1008.3
20260901133009 71 244 7.0 14.8 0.00 0.00 0.00 34 1008.1
20260901131512 72 205 5.2 13.0 0.00 0.00 0.00 33 1007.9
20260901130010 73 239 5.2 12.2 0.00 0.00 0.00 31 1007.9
20260901124526 73 245 4.3 12.2 0.00 0.00 0.00 31 1007.8
20260901123010 72 239 5.2 11.3 0.00 0.00 0.00 31 1007.8
20260901121511 73 219 6.1 10.4 0.00 0.00 0.00 29 1007.8
20260901120010 71 188 7.8 11.3 0.00 0.00 0.00 32 1007.8
20260901114509 69 163 1.7 10.4 0.00 0.00 0.00 56 1007.8
20260901113010 69 159 7.0 12.2 0.00 0.00 0.00 51 1007.7
20260901111510 70 254 6.1 14.8 0.00 0.00 0.00 36 1007.7
20260901110009 69 182 3.5 7.8 0.00 0.00 0.00 56 1007.8
20260901103010 68 180 4.3 7.8 0.00 0.00 0.00 50 1007.7
20260901101509 66 216 3.5 7.8 0.00 0.00 0.00 57 1007.7
20260901100010 65 188 2.6 7.0 0.00 0.00 0.00 62 1007.8
20260901094516 64 157 4.3 6.1 0.00 0.00 0.00 63 1007.8
20260901093008 66 214 0.9 4.3 0.00 0.00 0.00 59 1007.8
20260901091510 67 228 1.7 3.5 0.00 0.00 0.00 56 1007.9
20260901090009 67 286 0.9 3.5 0.00 0.00 0.00 56 1007.8
20260901084509 66 346 0.9 3.5 0.00 0.00 0.00 60 1007.7
20260901081509 64 344 0.0 2.6 0.00 0.00 0.00 64 1007.8
20260901080015 62 342 0.9 3.5 0.00 0.00 0.00 69 1007.7
20260901074509 62 342 0.9 4.3 0.00 0.00 0.00 67 1007.7
20260901073010 61 341 0.0 2.6 0.00 0.00 0.00 72 1007.8
20260901071511 58 340 0.0 0.9 0.00 0.00 0.00 77 1007.7
20260901070012 55 341 0.0 0.9 0.00 0.00 0.00 86 1007.6
20260901063024 52 341 0.9 3.5 0.00 0.00 0.00 93 1007.4